Location: Isles
(48.9125°N, 2.8272°E)
Time: 09:21:07
(UTC+00:00)

CZ-4C R/B - Pass Details

Date: 03 February 2023
Orbit: 456 x 612 km, 98.1° (Epoch: 28 March)

Event Time Altitude Azimuth Distance (km) Brightness Sun altitude
Rises 18:08:43 0° 14° (NNE) 2,722 6.6 -13.3°
Reaches altitude 10° 18:10:54 10° 15° (NNE) 1,796 5.7 -13.7°
Maximum altitude 18:14:47 84° 105° (ESE) 523 3.1 -14.3°
Drops below altitude 10° 18:18:25 10° 193° (SSW) 1,690 6.1 -14.9°
Sets 18:20:25 0° 194° (SSW) 2,544 7.0 -15.2°
